Find KALPANA-1

NORAD ID: 27525 Int'l Des: 2002-043 Owner: ISRO Country: IN operational
HEOCIRCULAR

当前视图

正在加载3D地球...

关于 KALPANA-1

正在加载描述...

即将过境

Passes for default location (London). Set your location on the main map for personalized predictions.

高度历史

Loading altitude history...

两行轨道根数

1 27525U 02043A 26149.53178127 -.00000196 00000-0 00000-0 0 9993
2 27525 13.0285 32.4502 0005366 141.7274 39.5065 0.98339242 86309
Epoch: May 29, 2026 • Age: 14 hours

当前状态

高度 36343.0 km
速度 3.05 km/s
星下点 7.39°N, 130.24°E
发射日期 Sep 12, 2002
运行时间 23.7 years
类型 other

技术详情

分类 Payload
质量 1060.00 kg
干质量 560.00 kg
总质量 1060.00 kg
长度 2.00 m
直径 2.00 m
跨度 5.00 m
形状 Box + Pan
制造商 ISRO
平台类型 I2K
阶段状态 In Orbit
所有者/国家 ISRO/IN

Most Searched